This demonstration page uses our WeatherBlox Daily Observations layout. Learn more.

Left ArrowRight Arrow

Hourly Observations for August 17, 2022

Temp ( °F °C ) Dew Point ( °F °C ) Humidity (%) Winds ( mph kmh ) Pressure ( in mb ) Visibility ( mi km ) Precip ( " mm )
12:52 am 00:52 Mostly Cloudy 67 19.4 66 18.9 97 97 ESE 10 17 29.97 1015 10 16 0.01 0.25
2:40 am 02:40 Cloudy 67 19.4 66 18.9 97 97 ENE 9 15 29.98 1015 10 16 0.00 0.00
2:52 am 02:52 Cloudy 67 19.4 66 18.9 97 97 E 9 15 29.97 1015 10 16 0.00 0.00
3:52 am 03:52 Cloudy 67 19.4 65 18.3 93 93 E 7 11 29.98 1015 10 16 0.00 0.00
4:52 am 04:52 Cloudy 67 19.4 65 18.3 93 93 E 8 13 29.98 1015 10 16 0.00 0.00
5:52 am 05:52 Cloudy with Light Rain 67 19.4 66 18.9 97 97 E 8 13 30.00 1016 4 6 0.01 0.13
6:29 am 06:29 Cloudy with Mist and Fog 66 18.9 66 18.9 100 100 E 6 9 30.01 1016 3 5 0.01 0.13
6:38 am 06:38 Cloudy with Mist and Fog 67 19.4 66 18.9 97 97 ENE 6 9 30.02 1016 3 5 0.01 0.13
6:44 am 06:44 Cloudy with Mist and Fog 67 19.4 66 18.9 97 97 ENE 8 13 30.02 1016 3 4 0.01 0.13
6:52 am 06:52 Cloudy with Mist and Fog 66 18.9 66 18.9 100 100 ENE 7 11 30.02 1017 3 5 0.01 0.13
7:00 am 07:00 Cloudy with Mist and Fog 67 19.4 66 18.9 97 97 ENE 8 13 30.02 1016 3 4 0.00 0.00
7:29 am 07:29 Cloudy with Mist and Fog 66 18.9 66 18.9 100 100 ENE 8 13 30.04 1017 2 2 0.00 0.00
7:52 am 07:52 Cloudy with Light Rain 65 18.3 65 18.3 100 100 E 13 20 30.05 1018 2 2 0.01 0.25
8:04 am 08:04 Cloudy with Mist and Fog 65 18.3 64 17.8 97 97 E 9 15 30.05 1018 2 3 0.01 0.13
8:15 am 08:15 Cloudy with Mist and Fog 65 18.3 64 17.8 97 97 E 10 17 30.05 1018 3 5 0.01 0.13
8:34 am 08:34 Cloudy with Mist and Fog 65 18.3 64 17.8 97 97 E 14 22 30.05 1018 3 5 0.01 0.13
8:52 am 08:52 Cloudy 66 18.9 63 17.2 90 90 E 10 17 30.06 1018 10 16 0.01 0.13
9:39 am 09:39 Cloudy 66 18.9 64 17.8 93 93 E 8 13 30.06 1018 10 16 0.01 0.13
9:52 am 09:52 Cloudy 67 19.4 63 17.2 87 87 E 9 15 30.07 1018 10 16 0.01 0.13
10:52 am 10:52 Cloudy 68 20 63 17.2 84 84 E 10 17 30.08 1019 10 16 0.00 0.00
11:52 am 11:52 Cloudy 70 21.1 63 17.2 78 78 E 7 11 30.07 1018 10 16 0.00 0.00
12:52 pm 12:52 Cloudy 73 22.8 64 17.8 73 73 ESE 8 13 30.07 1018 10 16 0.00 0.00
1:52 pm 13:52 Mostly Cloudy 76 24.4 64 17.8 67 67 E 8 13 30.06 1018 10 16 0.00 0.00
2:52 pm 14:52 Cloudy 76 24.4 64 17.8 67 67 S 3 6 30.05 1018 10 16 0.00 0.00
3:52 pm 15:52 Cloudy with Light Rain 74 23.3 66 18.9 76 76 ENE 6 9 30.04 1017 8 13 0.01 0.25
4:52 pm 16:52 Mostly Cloudy 76 24.4 68 20 77 77 S 7 11 30.04 1017 10 16 0.01 0.25
5:52 pm 17:52 Sunny 75 23.9 66 18.9 74 74 SSW 6 9 30.03 1017 10 16 0.00 0.00
6:52 pm 18:52 Sunny 75 23.9 65 18.3 71 71 SSW 3 6 30.02 1017 10 16 0.00 0.00
7:52 pm 19:52 Mostly Sunny 72 22.2 66 18.9 82 82 S 3 6 30.03 1017 10 16 0.00 0.00
8:52 pm 20:52 Clear 69 20.6 66 18.9 90 90 Calm 30.04 1017 10 16 0.00 0.00
9:52 pm 21:52 Clear 68 20 66 18.9 93 93 SSW 3 6 30.06 1018 10 16 0.00 0.00
10:52 pm 22:52 Mostly Clear 68 20 65 18.3 90 90 Calm 30.06 1018 10 16 0.00 0.00
11:52 pm 23:52 Clear 66 18.9 64 17.8 93 93 Calm 30.06 1018 10 16 0.00 0.00

Powered by AerisWeather